Date String (YYYY-MM-DD hh:mm:ss) UTC,Instrument flags,absolute air pressure of the measurement (hPa),sample flow rate (lpm),inlet stack bypass flow (lpm),air temperature of the measurement (°C),ambient temperature measured by the external sensor (°C),aerosol sample conditioner tube jacket temperature (°C),OPC LED temperature (°C),internal box temperature (°C),relative humidity of the measurement (%),span deviation,mass concentration of particles derived from Lorenz-Mie calculation of OPC scattering (μg/m³),mass concentration of particles derived from Lorenz-Mie calculation of OPC scattering (μg/m³),mass concentration of particles derived from Lorenz-Mie calculation of OPC scattering (μg/m³)
DateTimeUTC,F1_M11,P_M11,Q1_M11,Q2_M11,T1_M11,T2_M11,T3_M11,T4_M11,T5_M11,U1_M11,ZSPAN_M11,X2_M11,X0_M11,X1_M11
2023-09-02 02:00:00,SystemResetWarning,0829.8,5.00,000.00,027.5,025.7,000.0,035.8,029.2,21.7,0000.0,0003.97,0009.74,0002.94
2023-09-02 02:01:00,SystemResetWarning,0829.8,5.00,000.00,027.6,026.1,000.0,035.8,029.3,21.6,0000.0,0003.96,0010.61,0002.93
2023-09-02 02:02:00,SystemResetWarning,0829.9,5.01,000.00,027.6,026.4,000.0,035.8,029.4,21.8,0000.0,0003.93,0010.68,0002.92
2023-09-02 02:03:00,SystemResetWarning,0830.0,4.99,000.00,027.7,026.3,000.0,035.8,029.4,21.8,0000.0,0003.95,0010.77,0002.93
2023-09-02 02:04:00,SystemResetWarning,0829.9,4.99,000.00,027.6,024.9,000.0,035.8,028.9,21.5,0000.0,0003.94,0010.61,0002.94
2023-09-02 02:05:00,SystemResetWarning,0829.8,5.01,000.00,027.5,023.8,000.0,035.7,028.6,21.4,0000.0,0003.91,0011.07,0002.93
2023-09-02 02:06:00,SystemResetWarning,0829.9,5.02,000.00,027.4,023.9,000.0,035.7,028.7,21.9,0000.0,0003.91,0010.96,0002.95
2023-09-02 02:07:00,SystemResetWarning,0829.9,5.00,000.00,027.4,024.3,000.0,035.7,028.7,21.6,0000.0,0003.89,0010.78,0002.96
2023-09-02 02:08:00,SystemResetWarning,0830.0,5.00,000.00,027.4,024.8,000.0,035.7,028.9,21.5,0000.0,0003.89,0011.26,0002.97
2023-09-02 02:09:00,SystemResetWarning,0830.0,5.00,000.00,027.4,025.2,000.0,035.7,029.0,21.7,0000.0,0003.90,0011.12,0002.98
2023-09-02 02:10:00,SystemResetWarning,0830.0,5.00,000.00,027.5,025.7,000.0,035.7,029.2,21.6,0000.0,0003.93,0011.31,0002.99
2023-09-02 02:11:00,SystemResetWarning,0830.0,5.00,000.00,027.5,026.0,000.0,035.8,029.3,21.8,0000.0,0003.94,0012.18,0003.00
2023-09-02 02:12:00,SystemResetWarning,0830.0,5.00,000.00,027.6,026.3,000.0,035.8,029.4,21.6,0000.0,0003.89,0012.91,0003.00
2023-09-02 02:13:00,SystemResetWarning,0830.0,4.98,000.00,027.7,026.6,000.0,035.8,029.5,21.3,0000.0,0003.92,0013.16,0002.99
2023-09-02 02:14:00,SystemResetWarning,0830.0,4.99,000.00,027.7,026.7,000.0,035.9,029.5,21.0,0000.0,0003.90,0013.24,0002.99
2023-09-02 02:15:00,SystemResetWarning,0830.0,5.00,000.00,027.7,025.5,000.0,035.8,029.1,20.9,0000.0,0003.90,0013.09,0002.99
2023-09-02 02:16:00,SystemResetWarning,0830.0,5.00,000.00,027.6,024.2,000.0,035.7,028.6,21.1,0000.0,0003.89,0013.37,0002.99
2023-09-02 02:17:00,SystemResetWarning,0830.0,5.01,000.00,027.5,024.1,000.0,035.7,028.7,21.3,0000.0,0003.83,0013.18,0002.98
2023-09-02 02:18:00,SystemResetWarning,0830.0,5.02,000.00,027.4,024.4,000.0,035.7,028.7,21.2,0000.0,0003.87,0014.54,0002.99
2023-09-02 02:19:00,SystemResetWarning,0830.0,5.00,000.00,027.4,024.8,000.0,035.7,028.9,21.2,0000.0,0003.87,0014.58,0002.99
2023-09-02 02:20:00,SystemResetWarning,0830.0,5.00,000.00,027.5,025.3,000.0,035.8,029.0,21.0,0000.0,0003.86,0014.62,0002.99
2023-09-02 02:21:00,SystemResetWarning,0830.1,5.00,000.00,027.5,025.7,000.0,035.8,029.2,21.2,0000.0,0003.85,0015.05,0002.98
2023-09-02 02:22:00,SystemResetWarning,0830.1,5.00,000.00,027.6,026.0,000.0,035.8,029.3,21.4,0000.0,0003.85,0014.56,0002.98
2023-09-02 02:23:00,SystemResetWarning,0830.1,5.00,000.00,027.6,026.3,000.0,035.8,029.4,21.3,0000.0,0003.88,0013.35,0002.98
2023-09-02 02:24:00,SystemResetWarning,0830.1,5.00,000.00,027.7,026.6,000.0,035.9,029.5,21.0,0000.0,0003.82,0012.82,0002.97
2023-09-02 02:25:00,SystemResetWarning,0830.1,4.99,000.00,027.8,026.4,000.0,035.9,029.5,20.9,0000.0,0003.81,0012.84,0002.95
2023-09-02 02:26:00,SystemResetWarning,0830.1,4.99,000.00,027.7,024.8,000.0,035.8,028.9,20.7,0000.0,0003.79,0012.96,0002.93
2023-09-02 02:27:00,SystemResetWarning,0830.1,5.01,000.00,027.5,023.9,000.0,035.8,028.6,21.0,0000.0,0003.77,0011.96,0002.91
2023-09-02 02:28:00,SystemResetWarning,0830.0,5.00,000.00,027.5,024.1,000.0,035.7,028.7,21.1,0000.0,0003.76,0012.24,0002.91
2023-09-02 02:29:00,SystemResetWarning,0830.1,5.01,000.00,027.4,024.5,000.0,035.7,028.7,21.6,0000.0,0003.73,0011.87,0002.89
2023-09-02 02:30:00,SystemResetWarning,0830.1,5.00,000.00,027.4,024.9,000.0,035.8,028.9,21.5,0000.0,0003.72,0011.88,0002.88
2023-09-02 02:31:00,SystemResetWarning,0830.1,5.00,000.00,027.5,025.3,000.0,035.8,029.1,21.4,0000.0,0003.72,0011.81,0002.90
2023-09-02 02:32:00,SystemResetWarning,0830.1,5.00,000.00,027.5,025.7,000.0,035.8,029.2,21.3,0000.0,0003.70,0011.17,0002.91
2023-09-02 02:33:00,SystemResetWarning,0830.2,5.00,000.00,027.6,026.1,000.0,035.8,029.3,21.0,0000.0,0003.77,0011.10,0002.92
2023-09-02 02:34:00,SystemResetWarning,0830.1,5.00,000.00,027.7,026.4,000.0,035.9,029.4,21.3,0000.0,0003.75,0010.80,0002.92
2023-09-02 02:35:00,SystemResetWarning,0830.2,5.00,000.00,027.7,026.6,000.0,035.9,029.5,21.0,0000.0,0003.78,0010.66,0002.93
2023-09-02 02:36:00,SystemResetWarning,0830.3,4.99,000.00,027.7,025.8,000.0,035.9,029.3,20.8,0000.0,0003.77,0010.50,0002.93
2023-09-02 02:37:00,SystemResetWarning,0830.2,5.00,000.00,027.6,024.3,000.0,035.8,028.8,21.1,0000.0,0003.76,0010.22,0002.94
2023-09-02 02:38:00,SystemResetWarning,0830.2,5.01,000.00,027.5,023.9,000.0,035.7,028.8,21.1,0000.0,0003.82,0011.75,0002.96
2023-09-02 02:39:00,SystemResetWarning,0830.3,5.01,000.00,027.5,024.2,000.0,035.7,028.7,21.3,0000.0,0003.86,0012.16,0002.98
2023-09-02 02:40:00,SystemResetWarning,0830.2,5.00,000.00,027.4,024.6,000.0,035.8,028.8,21.3,0000.0,0003.90,0012.05,0003.01
2023-09-02 02:41:00,SystemResetWarning,0830.3,5.01,000.00,027.5,025.0,000.0,035.8,029.0,21.2,0000.0,0003.91,0011.73,0003.02
2023-09-02 02:42:00,SystemResetWarning,0830.3,5.00,000.00,027.5,025.5,000.0,035.8,029.1,21.2,0000.0,0003.94,0011.86,0003.01
2023-09-02 02:43:00,SystemResetWarning,0830.3,5.00,000.00,027.6,025.8,000.0,035.8,029.3,21.4,0000.0,0003.95,0011.94,0003.01
2023-09-02 02:44:00,SystemResetWarning,0830.3,5.00,000.00,027.6,026.2,000.0,035.9,029.4,21.5,0000.0,0003.88,0011.80,0003.01
2023-09-02 02:45:00,SystemResetWarning,0830.4,5.00,000.00,027.7,026.5,000.0,035.9,029.5,21.4,0000.0,0003.89,0012.11,0003.01
2023-09-02 02:46:00,SystemResetWarning,0830.4,5.00,000.00,027.7,026.5,000.0,035.9,029.5,21.2,0000.0,0003.87,0012.60,0003.01
2023-09-02 02:47:00,SystemResetWarning,0830.4,4.99,000.00,027.7,025.3,000.0,035.9,029.0,21.4,0000.0,0003.87,0012.83,0003.02
2023-09-02 02:48:00,SystemResetWarning,0830.3,5.01,000.00,027.5,024.0,000.0,035.8,028.6,21.7,0000.0,0003.91,0012.90,0003.03
2023-09-02 02:49:00,SystemResetWarning,0830.3,5.01,000.00,027.5,023.9,000.0,035.7,028.6,22.0,0000.0,0003.90,0012.21,0003.03
2023-09-02 02:50:00,SystemResetWarning,0830.3,4.99,000.00,027.4,024.3,000.0,035.7,028.7,22.3,0000.0,0003.86,0011.52,0003.01
2023-09-02 02:51:00,SystemResetWarning,0830.4,5.00,000.00,027.4,024.7,000.0,035.8,028.8,22.4,0000.0,0003.85,0011.52,0002.99
2023-09-02 02:52:00,SystemResetWarning,0830.3,5.00,000.00,027.4,025.1,000.0,035.8,029.0,22.5,0000.0,0003.81,0011.35,0002.97
2023-09-02 02:53:00,SystemResetWarning,0830.4,5.01,000.00,027.5,025.5,000.0,035.8,029.1,22.3,0000.0,0003.78,0011.71,0002.97
2023-09-02 02:54:00,SystemResetWarning,0830.4,5.00,000.00,027.5,025.9,000.0,035.8,029.2,22.4,0000.0,0003.74,0011.57,0002.96
2023-09-02 02:55:00,SystemResetWarning,0830.4,5.00,000.00,027.6,026.2,000.0,035.8,029.4,22.4,0000.0,0003.73,0011.84,0002.96
2023-09-02 02:56:00,SystemResetWarning,0830.4,4.99,000.00,027.7,026.5,000.0,035.9,029.4,22.2,0000.0,0003.70,0011.88,0002.96
2023-09-02 02:57:00,SystemResetWarning,0830.5,5.00,000.00,027.7,026.7,000.0,035.9,029.5,21.8,0000.0,0003.69,0011.66,0002.94
2023-09-02 02:58:00,SystemResetWarning,0830.4,4.99,000.00,027.7,025.7,000.0,035.9,029.2,21.9,0000.0,0003.71,0011.82,0002.94
2023-09-02 02:59:00,SystemResetWarning,0830.4,5.00,000.00,027.6,024.2,000.0,035.8,028.7,22.1,0000.0,0003.70,0012.22,0002.92
